MM9SQL Weather Reports


time (UTC)temp
C
wind
direction
speed
KPH
gust
KPH
rain 1hr
cm
rain 24hr
cm
rain mn
cm
humidity
%
barometer
mb
20260508011518 10 288 3.2 11.3 0.00 0.00 0.00 68 1009.1
20260508003502 10 214 4.8 14.5 0.00 0.00 0.00 67 1009.0
20260508000017 10 234 8.0 16.1 0.00 0.00 0.00 66 1008.8
20260507225508 10 250 4.8 14.5 0.00 0.00 0.00 65 1009.0
20260507220012 10 213 0.0 6.4 0.00 0.00 0.00 67 1009.3
20260507215504 10 208 0.0 4.8 0.00 0.00 0.00 66 1009.3
20260507215006 10 223 0.0 11.3 0.00 0.00 0.00 66 1009.4
20260507214502 10 211 3.2 11.3 0.00 0.00 0.00 65 1009.5
20260507214003 10 207 1.6 9.7 0.00 0.00 0.00 66 1009.5
20260507213504 10 257 1.6 9.7 0.00 0.00 0.00 66 1009.4
20260507213004 10 182 1.6 6.4 0.00 0.00 0.00 66 1009.3
20260507212503 10 193 1.6 6.4 0.00 0.00 0.00 67 1009.2
20260507212002 10 215 0.0 9.7 0.00 0.00 0.00 68 1009.0
20260507211502 10 196 3.2 9.7 0.00 0.00 0.00 68 1009.0
20260507211002 10 200 0.0 3.2 0.00 0.00 0.00 68 1009.2
20260507210502 10 203 0.0 9.7 0.00 0.00 0.00 68 1009.2
20260507210002 10 210 3.2 9.7 0.00 0.00 0.00 68 1009.2
20260507205502 10 207 1.6 6.4 0.00 0.00 0.00 69 1009.2
20260507205002 10 225 3.2 8.0 0.00 0.00 0.00 69 1009.2
20260507204503 10 232 3.2 8.0 0.00 0.00 0.00 69 1009.1
20260507204001 10 194 1.6 8.0 0.00 0.00 0.00 69 1009.1
20260507203505 11 179 1.6 6.4 0.00 0.00 0.00 68 1009.0
20260507203003 11 158 1.6 4.8 0.00 0.00 0.00 67 1009.0
20260507202502 11 269 0.0 8.0 0.00 0.00 0.00 67 1008.9
20260507202002 11 200 1.6 9.7 0.00 0.00 0.00 66 1008.9
20260507201503 11 20 3.2 9.7 0.00 0.00 0.00 66 1008.9
20260507201004 11 164 3.2 9.7 0.00 0.00 0.00 66 1008.8
20260507200502 11 222 3.2 6.4 0.00 0.00 0.00 66 1008.8
20260507200002 11 222 3.2 9.7 0.00 0.00 0.00 66 1008.8
20260507195502 11 222 3.2 9.7 0.00 0.00 0.00 66 1008.9
20260507195002 11 136 3.2 9.7 0.00 0.00 0.00 65 1008.8
20260507194503 11 216 3.2 11.3 0.00 0.00 0.00 65 1008.7
20260507194002 11 166 4.8 11.3 0.00 0.00 0.00 64 1008.5
20260507193502 11 225 4.8 14.5 0.00 0.00 0.00 64 1008.4
20260507193005 11 203 3.2 14.5 0.00 0.00 0.00 64 1008.6
20260507192001 12 275 3.2 12.9 0.00 0.00 0.00 64 1008.6
20260507191503 12 214 4.8 12.9 0.00 0.00 0.00 63 1008.5
20260507191003 12 221 3.2 14.5 0.00 0.00 0.00 63 1008.6
20260507190503 12 197 4.8 16.1 0.00 0.00 0.00 63 1008.7
20260507190008 12 213 6.4 16.1 0.00 0.00 0.00 63 1008.7
20260507185503 12 250 6.4 16.1 0.00 0.00 0.00 61 1008.7
20260507185002 12 207 1.6 14.5 0.00 0.00 0.00 62 1008.5
20260507184503 13 127 6.4 14.5 0.00 0.00 0.00 61 1008.5
20260507184001 13 162 4.8 12.9 0.00 0.00 0.00 61 1008.4
20260507183502 13 134 3.2 12.9 0.00 0.00 0.00 61 1008.5
20260507183008 13 181 4.8 12.9 0.00 0.00 0.00 61 1008.5
20260507182503 13 164 3.2 11.3 0.00 0.00 0.00 61 1008.5
20260507182002 13 211 3.2 11.3 0.00 0.00 0.00 60 1008.3
20260507181505 13 221 1.6 11.3 0.00 0.00 0.00 61 1008.3
20260507181003 13 154 1.6 11.3 0.00 0.00 0.00 60 1008.3
20260507180502 13 195 3.2 12.9 0.00 0.00 0.00 60 1008.2
20260507180006 13 132 1.6 14.5 0.00 0.00 0.00 60 1008.1
20260507175504 13 221 3.2 14.5 0.00 0.00 0.00 59 1008.1
20260507175003 13 206 3.2 9.7 0.00 0.00 0.00 59 1008.0
20260507174503 13 193 3.2 11.3 0.00 0.00 0.00 61 1008.1
20260507174003 13 255 3.2 12.9 0.00 0.00 0.00 60 1008.3
20260507173505 13 181 4.8 14.5 0.00 0.00 0.00 60 1008.3
20260507173004 13 66 4.8 14.5 0.00 0.00 0.00 62 1008.4
20260507172503 12 209 3.2 9.7 0.00 0.00 0.00 64 1008.4
20260507172002 12 155 3.2 9.7 0.00 0.00 0.00 65 1008.4
20260507171503 12 248 1.6 16.1 0.00 0.00 0.00 66 1008.5
20260507171003 12 184 4.8 16.1 0.00 0.00 0.00 65 1008.5
20260507170503 12 190 4.8 14.5 0.00 0.00 0.00 65 1008.5
20260507170004 12 210 4.8 11.3 0.00 0.00 0.00 64 1008.5
20260507165002 12 221 6.4 16.1 0.00 0.00 0.00 62 1008.5
20260507164004 13 206 6.4 14.5 0.00 0.00 0.00 60 1008.5
20260507163003 13 210 6.4 16.1 0.00 0.00 0.00 59 1008.6
20260507162503 13 188 4.8 16.1 0.00 0.00 0.00 59 1008.6
20260507162003 13 186 6.4 14.5 0.00 0.00 0.00 60 1008.6
20260507161504 13 165 6.4 16.1 0.00 0.00 0.00 60 1008.6
20260507161003 13 349 3.2 16.1 0.00 0.00 0.00 60 1008.7
20260507160005 13 231 4.8 12.9 0.00 0.00 0.00 60 1008.7
20260507155505 13 139 4.8 12.9 0.00 0.00 0.00 61 1008.7
20260507154504 13 207 4.8 12.9 0.00 0.00 0.00 61 1008.8
20260507154003 13 262 3.2 17.7 0.00 0.00 0.00 64 1008.8
20260507153504 12 193 3.2 17.7 0.00 0.00 0.00 65 1008.9
20260507153005 12 204 4.8 20.9 0.00 0.00 0.00 65 1008.8
20260507152503 12 288 4.8 20.9 0.00 0.00 0.00 65 1008.9
20260507152003 13 262 4.8 20.9 0.00 0.00 0.00 60 1008.9
20260507151503 13 270 8.0 19.3 0.00 0.00 0.00 57 1008.9
20260507151003 13 142 6.4 19.3 0.00 0.00 0.00 58 1009.0
20260507150503 13 254 4.8 16.1 0.00 0.00 0.00 58 1009.0
20260507150010 13 186 4.8 22.5 0.00 0.00 0.00 60 1009.0
20260507145504 13 243 4.8 22.5 0.00 0.00 0.00 59 1009.0
20260507145003 13 215 8.0 17.7 0.00 0.00 0.00 59 1009.1
20260507144504 13 229 6.4 19.3 0.00 0.00 0.00 59 1009.1
20260507144005 13 65 9.7 19.3 0.00 0.00 0.00 59 1009.3
20260507143506 13 250 6.4 19.3 0.00 0.00 0.00 59 1009.2
20260507143004 13 235 3.2 19.3 0.00 0.00 0.00 59 1009.2
20260507142502 13 161 4.8 19.3 0.00 0.00 0.00 59 1009.2
20260507142006 13 206 6.4 19.3 0.00 0.00 0.00 59 1009.2
20260507141503 13 255 6.4 19.3 0.00 0.00 0.00 59 1009.3
20260507141007 13 186 4.8 19.3 0.00 0.00 0.00 60 1009.3
20260507140503 13 195 6.4 16.1 0.00 0.00 0.00 58 1009.3
20260507140005 13 148 6.4 16.1 0.00 0.00 0.00 59 1009.5
20260507135503 13 263 8.0 20.9 0.00 0.00 0.00 57 1009.4
20260507135003 13 205 9.7 22.5 0.00 0.00 0.00 57 1009.4
20260507134506 13 214 9.7 22.5 0.00 0.00 0.00 57 1009.5
20260507133503 13 242 4.8 16.1 0.00 0.00 0.00 59 1009.6
20260507133005 13 176 6.4 17.7 0.00 0.00 0.00 58 1009.7
20260507132003 13 231 6.4 19.3 0.00 0.00 0.00 58 1009.7
20260507131504 13 176 6.4 16.1 0.00 0.00 0.00 59 1009.7
20260507131002 12 201 6.4 16.1 0.00 0.00 0.00 62 1009.8
20260507130505 11 221 4.8 17.7 0.00 0.00 0.00 63 1009.9
20260507130007 11 262 4.8 17.7 0.00 0.00 0.00 63 1010.0
20260507125502 11 229 4.8 20.9 0.00 0.00 0.00 63 1010.0
20260507125003 11 167 8.0 20.9 0.00 0.00 0.00 62 1010.1
20260507124507 11 174 8.0 19.3 0.00 0.00 0.00 61 1010.0
20260507124004 11 243 4.8 17.7 0.00 0.00 0.00 61 1010.1
20260507123503 11 253 6.4 20.9 0.00 0.00 0.00 60 1010.1
20260507122503 11 198 6.4 12.9 0.00 0.00 0.00 60 1009.9
20260507122004 11 203 4.8 11.3 0.00 0.00 0.00 60 1010.1
20260507121504 11 204 3.2 12.9 0.00 0.00 0.00 60 1010.0
20260507121003 11 216 4.8 17.7 0.00 0.00 0.00 58 1010.0
20260507120504 12 287 6.4 17.7 0.00 0.00 0.00 58 1010.0
20260507120006 12 175 4.8 16.1 0.00 0.00 0.00 58 1010.0
20260507115504 12 201 6.4 16.1 0.00 0.00 0.00 57 1009.9
20260507115007 12 133 6.4 14.5 0.00 0.00 0.00 57 1010.0
20260507114504 12 227 6.4 12.9 0.00 0.00 0.00 57 1010.1
20260507114003 12 229 4.8 16.1 0.00 0.00 0.00 56 1010.0
20260507113502 12 203 6.4 19.3 0.00 0.00 0.00 56 1010.0
20260507113008 12 289 8.0 20.9 0.00 0.00 0.00 55 1009.9
20260507112004 12 187 6.4 17.7 0.00 0.00 0.00 56 1009.9
20260507111003 12 203 4.8 17.7 0.00 0.00 0.00 57 1009.9
20260507110505 12 192 8.0 19.3 0.00 0.00 0.00 56 1009.8
20260507110007 12 223 8.0 19.3 0.00 0.00 0.00 55 1009.9
20260507105503 12 278 6.4 19.3 0.00 0.00 0.00 55 1009.8
20260507105003 12 228 4.8 25.7 0.00 0.00 0.00 54 1009.8
20260507104511 13 239 9.7 25.7 0.00 0.00 0.00 53 1009.8
20260507104004 13 190 6.4 14.5 0.00 0.00 0.00 56 1009.8
20260507103504 12 214 4.8 16.1 0.00 0.00 0.00 58 1009.8
20260507103003 12 203 6.4 17.7 0.00 0.00 0.00 57 1009.8
20260507102505 12 199 8.0 17.7 0.00 0.00 0.00 56 1009.8
20260507102006 12 217 6.4 17.7 0.00 0.00 0.00 57 1010.0
20260507101512 12 199 8.0 16.1 0.00 0.00 0.00 55 1009.9
20260507101004 12 190 6.4 17.7 0.00 0.00 0.00 56 1010.0
20260507100016 12 168 9.7 24.1 0.00 0.00 0.00 53 1009.9
20260507095504 12 179 8.0 24.1 0.00 0.00 0.00 55 1009.9
20260507095003 12 219 9.7 24.1 0.00 0.00 0.00 56 1009.9
20260507094509 12 172 8.0 19.3 0.00 0.00 0.00 57 1009.8
20260507094004 11 219 6.4 19.3 0.00 0.00 0.00 56 1009.8
20260507093504 11 225 8.0 19.3 0.00 0.00 0.00 57 1009.9
20260507093006 11 91 8.0 20.9 0.00 0.00 0.00 57 1010.2
20260507092502 11 204 6.4 20.9 0.00 0.00 0.00 57 1010.3
20260507091504 12 255 4.8 11.3 0.00 0.00 0.00 58 1010.3
20260507091006 11 250 3.2 9.7 0.00 0.00 0.00 58 1010.2
20260507090505 11 214 4.8 9.7 0.00 0.00 0.00 58 1010.3
20260507090007 11 203 3.2 12.9 0.00 0.00 0.00 58 1010.3
20260507085504 11 235 4.8 12.9 0.00 0.00 0.00 59 1010.3
20260507085009 11 259 4.8 19.3 0.00 0.00 0.00 59 1010.4
20260507084513 11 227 6.4 19.3 0.00 0.00 0.00 58 1010.4
20260507084009 11 215 4.8 16.1 0.00 0.00 0.00 58 1010.3
20260507083507 11 161 6.4 16.1 0.00 0.00 0.00 59 1010.4
20260507082503 10 245 4.8 17.7 0.00 0.00 0.00 61 1010.2
20260507081503 10 200 6.4 19.3 0.00 0.00 0.00 62 1010.3
20260507081003 10 172 6.4 19.3 0.00 0.00 0.00 62 1010.3
20260507080504 10 272 4.8 17.7 0.00 0.00 0.00 63 1010.2
20260507080009 10 203 6.4 17.7 0.00 0.00 0.00 63 1010.3
20260507075503 10 211 8.0 17.7 0.00 0.00 0.00 63 1010.2
20260507075004 9 287 4.8 14.5 0.00 0.00 0.00 64 1010.3
20260507074523 9 214 6.4 14.5 0.00 0.00 0.00 64 1010.3
20260507074007 9 210 3.2 9.7 0.00 0.00 0.00 64 1010.4
20260507073016 9 193 3.2 16.1 0.00 0.00 0.00 64 1010.5
20260507072506 8 198 4.8 17.7 0.00 0.00 0.00 64 1010.4
20260507072006 8 178 4.8 17.7 0.00 0.00 0.00 64 1010.4
20260507071515 8 234 3.2 14.5 0.00 0.00 0.00 65 1010.4
20260507071003 8 209 6.4 14.5 0.00 0.00 0.00 64 1010.4
20260507070504 8 216 4.8 16.1 0.00 0.00 0.00 65 1010.4
20260507070009 8 161 4.8 16.1 0.00 0.00 0.00 65 1010.4
20260507065505 8 246 6.4 11.3 0.00 0.00 0.00 65 1010.3
20260507065005 8 191 3.2 8.0 0.00 0.00 0.00 66 1010.3
20260507064510 8 201 0.0 14.5 0.00 0.00 0.00 66 1010.4
20260507064004 8 218 3.2 14.5 0.00 0.00 0.00 66 1010.4
20260507063504 7 158 4.8 11.3 0.00 0.00 0.00 66 1010.4
20260507063015 7 219 3.2 11.3 0.00 0.00 0.00 66 1010.4
20260507062505 7 174 3.2 12.9 0.00 0.00 0.00 67 1010.4
20260507062008 7 163 4.8 12.9 0.00 0.00 0.00 67 1010.3
20260507061518 7 299 3.2 11.3 0.00 0.00 0.00 69 1010.3
20260507061006 6 208 1.6 6.4 0.00 0.00 0.00 71 1010.4
20260507060507 6 288 0.0 1.6 0.00 0.00 0.00 73 1010.6
20260507060020 6 359 0.0 3.2 0.00 0.00 0.00 73 1010.6
20260507055506 6 359 1.6 4.8 0.00 0.00 0.00 73 1010.6
20260507055002 6 347 0.0 4.8 0.00 0.00 0.00 73 1010.7
20260507054507 6 39 1.6 3.2 0.00 0.00 0.00 72 1010.7
20260507054004 6 12 0.0 3.2 0.00 0.00 0.00 72 1010.7
20260507053503 6 139 0.0 3.2 0.00 0.00 0.00 72 1010.7
20260507053008 6 3 0.0 3.2 0.00 0.00 0.00 72 1010.7
20260507052506 6 246 0.0 1.6 0.00 0.00 0.00 72 1010.8
20260507050018 6 24 0.0 6.4 0.00 0.00 0.00 71 1010.7
20260507043008 6 18 1.6 6.4 0.00 0.00 0.00 70 1010.8
20260507040507 6 248 1.6 3.2 0.00 0.00 0.00 69 1010.7
20260507034007 7 214 1.6 11.3 0.00 0.00 0.00 67 1010.8
20260507033510 7 174 1.6 17.7 0.00 0.00 0.00 67 1010.8
20260507031005 7 188 3.2 14.5 0.00 0.00 0.00 66 1010.9
20260507030505 7 209 1.6 17.7 0.00 0.00 0.00 65 1010.9
20260507023004 7 226 4.8 16.1 0.00 0.00 0.00 63 1011.1
20260507020504 7 30 3.2 14.5 0.00 0.00 0.00 63 1011.2